This demonstration page uses our WeatherBlox Daily Observations layout. Learn more.

Left ArrowRight Arrow

Hourly Observations for February 15, 2018

Temp ( °F °C ) Dew Point ( °F °C ) Humidity (%) Winds ( mph kmh ) Pressure ( in mb ) Visibility ( mi km ) Precip ( " mm )
12:54 am 00:54 Clear with Mist and Fog 35 1.7 33 0.6 93 93 Calm 29.76 1008 6 10 0.00 0.00
1:54 am 01:54 Clear with Mist and Fog 35 1.7 33 0.6 93 93 Calm 29.73 1007 5 8 0.00 0.00
2:54 am 02:54 Clear with Mist and Fog 35 1.7 34 1.1 96 96 S 5 7 29.73 1007 6 10 0.00 0.00
3:54 am 03:54 Clear with Mist and Fog 35 1.7 33 0.6 93 93 N 7 11 29.71 1006 5 8 0.00 0.00
4:54 am 04:54 Mostly Clear with Mist and Fog 35 1.7 33 0.6 93 93 N 5 7 29.70 1006 6 10 0.00 0.00
5:54 am 05:54 Clear with Mist and Fog 36 2.2 33 0.6 89 89 ENE 5 7 29.72 1006 6 10 0.00 0.00
6:54 am 06:54 Clear 36 2.2 33 0.6 89 89 NW 3 6 29.72 1007 8 13 0.00 0.00
7:54 am 07:54 Sunny 37 2.8 31 -0.6 79 79 N 6 9 29.79 1009 10 16 0.00 0.00
8:54 am 08:54 Sunny 38 3.3 32 0 79 79 N 7 11 29.83 1010 10 16 0.00 0.00
9:54 am 09:54 Sunny 43 6.1 32 0 65 65 N 12 19 29.83 1010 10 16 0.00 0.00
10:54 am 10:54 Sunny 44 6.7 31 -0.6 60 60 N 16 26 29.85 1011 10 16 0.00 0.00
11:54 am 11:54 Sunny 44 6.7 31 -0.6 60 60 NNE 14 22 29.85 1011 10 16 0.00 0.00
12:54 pm 12:54 Sunny 44 6.7 31 -0.6 60 60 NNE 14 22 29.85 1011 10 16 0.00 0.00
1:54 pm 13:54 Sunny 44 6.7 32 0 63 63 N 15 24 29.85 1011 10 16 0.00 0.00
2:54 pm 14:54 Sunny 43 6.1 32 0 65 65 N 14 22 29.87 1012 10 16 0.00 0.00
3:54 pm 15:54 Sunny 42 5.6 32 0 68 68 N 13 20 29.93 1013 10 16 0.00 0.00
4:54 pm 16:54 Sunny 41 5 33 0.6 73 73 N 13 20 29.97 1015 10 16 0.00 0.00
5:54 pm 17:54 Cloudy 38 3.3 32 0 79 79 N 16 26 30.04 1017 10 16 0.00 0.00
6:10 pm 18:10 Cloudy 37 2.8 31 -0.6 79 79 N 15 24 30.09 1019 10 16 0.00 0.00
6:54 pm 18:54 Cloudy 36 2.2 31 -0.6 82 82 N 23 37 30.10 1019 10 16 0.00 0.00
7:54 pm 19:54 Cloudy 33 0.6 29 -1.7 85 85 N 23 37 30.15 1021 10 16 0.00 0.00
8:54 pm 20:54 Cloudy 31 -0.6 26 -3.3 82 82 N 28 44 30.18 1022 10 16 0.00 0.00
9:18 pm 21:18 Cloudy 30 -1.1 24 -4.4 79 79 N 29 46 30.24 1024 10 16 0.00 0.00
9:54 pm 21:54 Cloudy 27 -2.8 20 -6.7 75 75 N 32 52 30.24 1024 10 16 0.00 0.00
10:33 pm 22:33 Mostly Cloudy 26 -3.3 19 -7.2 75 75 N 24 39 30.33 1027 10 16 0.00 0.00
10:50 pm 22:50 Cloudy 25 -4 18 -8 74 74 N 28 44 30.33 1027 10 16 0.00 0.00
10:54 pm 22:54 Cloudy 25 -3.9 18 -7.8 75 75 N 24 39 30.29 1026 10 16 0.00 0.00
11:16 pm 23:16 Mostly Cloudy 24 -4.4 17 -8.3 75 75 N 28 44 30.36 1028 10 16 0.00 0.00
11:46 pm 23:46 Partly Cloudy 23 -5 16 -8.9 74 74 N 22 35 30.36 1028 10 16 0.00 0.00
11:54 pm 23:54 Mostly Cloudy 23 -5 16 -8.9 74 74 N 20 31 30.33 1027 10 16 0.00 0.00

Powered by AerisWeather